This is the latest recevied weather packets stored in our database for station/object PP5FMM-13. If no packets are shown the sender has not sent any weather packets the latest 10 day(s).
| Time | Temp. | Humidity | Pressure | Rain* | Wind** | Luminosity | Snow |
|---|---|---|---|---|---|---|---|
| 1777791331 | 22.22° C | 74% | 1020.6 hPa | - | - | - | - |
| 1777791032 | 22.22° C | 75% | 1020.6 hPa | - | - | - | - |
| 1777790731 | 22.78° C | 79% | 1020.5 hPa | - | - | - | - |
| 1777790431 | 22.78° C | 78% | 1020.5 hPa | - | - | - | - |
| 1777790132 | 22.78° C | 74% | 1020.3 hPa | - | - | - | - |
| 1777789831 | 22.78° C | 76% | 1020.5 hPa | - | - | - | - |
| 1777789532 | 22.78° C | 73% | 1020.4 hPa | - | - | - | - |
| 1777789231 | 22.78° C | 78% | 1020.5 hPa | - | - | - | - |
| 1777788931 | 22.78° C | 74% | 1020.5 hPa | - | - | - | - |
| 1777788632 | 22.78° C | 71% | 1020.2 hPa | - | - | - | - |
| 1777788332 | 22.78° C | 72% | 1020.1 hPa | - | - | - | - |
| 1777788031 | 22.78° C | 71% | 1020.1 hPa | - | - | - | - |
| 1777787731 | 23.33° C | 72% | 1020.2 hPa | - | - | - | - |
| 1777787431 | 23.33° C | 72% | 1020.1 hPa | - | - | - | - |
| 1777787131 | 23.33° C | 72% | 1020.2 hPa | - | - | - | - |
| 1777786831 | 23.33° C | 72% | 1020.2 hPa | - | - | - | - |
| 1777786531 | 23.33° C | 75% | 1020.3 hPa | - | - | - | - |
| 1777786231 | 23.33° C | 74% | 1020.2 hPa | - | - | - | - |
| 1777785932 | 23.33° C | 73% | 1020.4 hPa | - | - | - | - |
| 1777785635 | 23.33° C | 76% | 1020.4 hPa | - | - | - | - |
| 1777785331 | 23.33° C | 77% | 1020.5 hPa | - | - | - | - |
| 1777785031 | 23.33° C | 75% | 1020.5 hPa | - | - | - | - |
| 1777784731 | 23.33° C | 79% | 1020.6 hPa | - | - | - | - |
| 1777784431 | 23.33° C | 78% | 1020.6 hPa | - | - | - | - |
| 1777784132 | 23.89° C | 77% | 1020.6 hPa | - | - | - | - |
* Rain since midnight (hover to see other rain measurements)
** Current wind speed in m/s (hover to see current wind gust speed)